Find Starlink 38267

NORAD ID: 100301 Int'l Des: 2026-184 Owner: SPXS Country: US Constellation: starlink operational

Current View

Loading 3D Globe...

About Starlink 38267

Starlink 38267 (NORAD 100301) is a starlink constellation satellite launched Aug 12, 2026 by SPXS of US. with a mass of 575.00 kg.

Upcoming Passes

Passes for default location (London). Set your location on the main map for personalized predictions.

Altitude History

Loading altitude history...

Two-Line Element Set

1 A0301U 26184A 26262.90407450 .00013434 00000-0 41745-3 0 9991
2 A0301 97.2846 128.1001 0001839 71.4883 288.6559 15.33464352 7272
Epoch: Sep 19, 2026 • Age: 17 hours

Current Status

Altitude 495.0 km
Apogee / Perigee N/A
Velocity 7.62 km/s
Sub-Earth Point -82.70°S, 6.08°W
Launch Date Aug 12, 2026
Age 0.1 years
Type internet

Technical Details

Classification Payload
Mass 575.00 kg
Dry Mass 530.00 kg
Length 0.30 m
Span 29.00 m
Shape ? Box + pan
Manufacturer SPXS
Bus Type Starlink V2MO
Phase Status In Orbit
Owner/State SPXS/US

Most Searched